Location: Kalundborg
(55.6921°N, 11.1537°E)
Time: 18:00:21
(UTC+01:00)

ISS - Visible Passes

Search period start: 25 October 2020 00:00
Search period end: 03 November 2020 23:00
Orbit: 417 x 420 km, 51.6° (Epoch: 25 October)

Date Brightness Start Highest point End Pass type
(mag) Time Alt. Az. Time Alt. Az. Time Alt. Az.
25 Oct -1.2 05:54:46 10° SSW 05:57:11 19° SSE 05:59:37 10° ESE visible
26 Oct -1.0 05:07:47 10° S 05:09:39 14° SSE 05:11:31 10° ESE visible
27 Oct -0.8 04:21:42 10° SSE 04:22:08 10° SE 04:22:42 10° SE visible
27 Oct -2.0 05:55:11 10° SW 05:58:08 28° SSE 06:01:06 10° E visible
28 Oct -1.8 05:09:06 18° SSW 05:10:31 23° SSE 05:13:16 10° ESE visible
29 Oct -1.3 04:23:27 18° SE 04:23:27 18° SE 04:25:21 10° ESE visible
29 Oct -2.6 05:56:24 13° WSW 05:59:10 38° S 06:02:20 10° ESE visible
30 Oct -2.5 05:10:42 29° SSW 05:11:30 33° SSE 05:14:35 10° E visible
31 Oct -1.6 04:24:56 23° SE 04:24:56 23° SE 04:26:48 10° E visible
31 Oct -2.9 05:57:53 16° WSW 06:00:14 41° S 06:03:27 10° ESE visible
01 Nov -3.0 05:12:05 38° SSW 05:12:33 41° S 05:15:45 10° ESE visible
02 Nov -1.7 04:26:16 25° ESE 04:26:16 25° ESE 04:28:01 10° ESE visible
02 Nov -2.8 05:59:13 18° WSW 06:01:17 37° S 06:04:26 10° ESE visible
03 Nov -3.0 05:13:24 40° SSW 05:13:36 40° S 05:16:48 10° ESE visible
03 Nov -2.0 06:47:13 10° WSW 06:49:54 22° SSW 06:52:34 10° SSE visible
